Hourly Weather Roundup
Issued by NWS Central Illinois

Home | Current Version | Previous Version | Text Only | Print | Product List | Glossary On
Versions: 1 2 3 4 5 6 7 8 9 10 11 12 13 14 15 16 17 18 19 20 21 22 23 24 25 26 27 28 29 30 31 32 33 34 35 36 37 38 39 40 41 42 43 44 45 46 47 48 49 50
736
NZUS43 KILX 241210
HWRILX

Area Weather Roundup
National Weather Service Lincoln IL
700 AM CDT WED MAY 24 2017

NOTE:  "FAIR" indicates few or no clouds below 12,000 feet, with
       no sigificant weather and/or obstructions to visibility.


CITY           SKY/WX    TMP DP  RH WIND       PRES   REMARKS
Bloomington    FOG       51  51 100 NW7       29.60S VSB 1/4
6HR MIN TEMP:  50; 6HR MAX TEMP:  55;

Champaign      CLOUDY    57  54  89 NW8       29.57R FOG
6HR MIN TEMP:  57; 6HR MAX TEMP:  57; 6HR PCP: TRACE;

Danville       CLOUDY    56  55  96 NW5       29.53S
6HR MIN TEMP:  55; 6HR MAX TEMP:  57;

Decatur        CLOUDY    54  53  97 NW7       29.58S FOG
6HR MIN TEMP:  52; 6HR MAX TEMP:  58;

Effingham      CLOUDY    57  57 100 NW7       29.58F FOG
6HR MIN TEMP:  57; 6HR MAX TEMP:  58;

Flora          DRIZZLE   58  56  93 N5        29.56F
6HR MIN TEMP:  58; 6HR MAX TEMP:  61;

Galesburg      CLOUDY    50  48  95 N6        29.61R
6HR MIN TEMP:  48; 6HR MAX TEMP:  50;

Jacksonville   SUNNY     50  49  95 NW6       29.60F
6HR MIN TEMP:  47; 6HR MAX TEMP:  53;

Lacon          CLOUDY    53  53 100 N8        29.60S FOG
6HR MIN TEMP:  53; 6HR MAX TEMP:  54;

Lawrenceville  LGT RAIN  58  56  93 NW8       29.55F FOG
6HR MIN TEMP:  58; 6HR MAX TEMP:  63; 6HR PCP:  0.02;

Litchfield     MOSUNNY   51  49  95 NW8       29.60S
6HR MIN TEMP:  50; 6HR MAX TEMP:  55;

$$


CITY           SKY/WX    TMP DP  RH WIND       PRES   REMARKS
Lincoln        CLOUDY    55  55 100 CALM      29.59S FOG
6HR MIN TEMP:  53; 6HR MAX TEMP:  55;

Macomb         CLOUDY    49  49  97 NW3       29.64R
6HR MIN TEMP:  47; 6HR MAX TEMP:  51;

Mattoon        LGT RAIN  56  56 100 NW10      29.56S
6HR MIN TEMP:  56; 6HR MAX TEMP:  57; 6HR PCP: TRACE;

Mt Carmel AP   RAIN      58  56  93 NW6       29.55S
6HR MIN TEMP:  58; 6HR MAX TEMP:  62;

Olney-Noble AP RAIN      57  57 100 NW6       29.56F
Paris AP       CLOUDY    57  56  95 N5        29.57R
6HR MIN TEMP:  55; 6HR MAX TEMP:  58; 6HR PCP:  0.01;

Peoria         FOG       52  52 100 N6        29.59F VSB 1/4
6HR MIN TEMP:  51; 6HR MAX TEMP:  55;

Pontiac        FOG       54  53  98 NW8       29.59S VSB<1/4
6HR MIN TEMP:  54; 6HR MAX TEMP:  56;

Rantoul        CLOUDY    58  57  97 N5        29.57R FOG
6HR MIN TEMP:  57; 6HR MAX TEMP:  58; 6HR PCP:  0.06;

Robinson       LGT RAIN  57  56  96 NW3       29.56S
6HR MIN TEMP:  57; 6HR MAX TEMP:  59;

Springfield    SUNNY     53  52  96 N5        29.60S
6HR MIN TEMP:  52; 6HR MAX TEMP:  56;

Taylorville    MOSUNNY   53  52  97 NW7       29.59S
6HR MIN TEMP:  52; 6HR MAX TEMP:  56;

$$

...REGIONAL REPORTS...


CITY           SKY/WX    TMP DP  RH WIND       PRES   REMARKS
Chicago O`Hare CLOUDY    54  51  90 N13       29.58F
Kankakee       CLOUDY    56  55  98 CALM      29.57S FOG
Moline         CLOUDY    52  48  86 N3        29.62S
Mount Sterling SUNNY     49  47  94 NW6       29.61S
Mount Vernon     N/A     57  55  93 CALM      29.56
Pittsfield     SUNNY     50  48  94 W5        29.62F
Quincy         SUNNY     49  47  93 NW9       29.62S
Rockford       LGT RAIN  53  52  96 N10       29.64S FOG
$$


CITY           SKY/WX    TMP DP  RH WIND       PRES   REMARKS
Burlington     SUNNY     49  48  97 N7        29.62R
Cedar Rapids   CLOUDY    52  52 100 N10       29.64R
Des Moines     CLOUDY    53  51  93 N10       29.67S
Kirksville     FOG       47  47 100 NW8       29.66R VSB 1/4
Ottumwa        CLOUDY    49  49 100 NW6       29.65R FOG
St Louis       PTSUNNY   55  50  83 NW7       29.60F
$$


CITY           SKY/WX    TMP DP  RH WIND       PRES   REMARKS
Terre Haute    LGT RAIN  58  54  86 NW7       29.54S
Evansville     LGT RAIN  60  57  89 N6        29.54F FOG
Indianapolis   LGT RAIN  59  56  89 N6        29.53F FOG
Lafayette      CLOUDY    58  55  90 N5        29.54R
Madison        CLOUDY    51  49  92 N8        29.66R
Milwaukee      LGT RAIN  49  48  97 N8        29.65S VSB 3/4
$$






USA.gov is the U.S. government's official web portal to all federal, state and local government web resources and services.